Regional Weather Roundup
Issued by NWS Mt. Holly, NJ

Home | Current Version | Previous Version | Text Only | Print | Product List | Glossary On
Versions: 1 2 3 4 5 6 7 8 9 10 11 12 13 14 15 16 17 18 19 20 21 22 23 24 25 26 27
000
ASUS41 KPHI 300011
RWRPHI

REGIONAL WEATHER ROUNDUP
NATIONAL WEATHER SERVICE MOUNT HOLLY NJ
800 PM EDT WED MAR 29 2017

NOTE:  "FAIR" INDICATES FEW OR NO CLOUDS BELOW 12,000 FEET WITH NO
SIGNIFICANT WEATHER AND/OR OBSTRUCTIONS TO VISIBILITY.

 * = STATION DOES NOT REPORT PRECIPITATION (E.G. RAIN, SNOW, ETC.)
        OR FOG.

NJZ015>026-300100-
SOUTHERN NEW JERSEY

CITY           SKY/WX    TMP DP  RH WIND       PRES   REMARKS
POMONA         CLEAR     45  38  76 E3        30.12R
6HR MIN TEMP:  45; 6HR MAX TEMP:  63;

WILDWOOD*      CLEAR     52  40  63 CALM      30.12R
MILLVILLE      CLEAR     53  33  46 N6        30.12R
WRIGHTSTOWN    CLEAR     50  28  42 NW13      30.12R
MOUNT HOLLY    CLEAR     52  27  38 N8        30.15R
TRENTON        CLEAR     51  27  39 N13       30.14R
6HR MIN TEMP:  51; 6HR MAX TEMP:  60;


$$
NJZ001>014-300100-
NORTHERN NEW JERSEY

CITY           SKY/WX    TMP DP  RH WIND       PRES   REMARKS
SUSSEX         CLEAR     47  23  38 N9G18     30.18R
ANDOVER*         N/A     46  23  40 N9G17     30.16R
NEWARK         PTCLDY    52  23  32 NW17      30.15R
TETERBORO      CLEAR     51  24  34 N13G25    30.14R
CALDWELL       CLEAR     49  24  37 N8        30.16R
SOMERVILLE     CLEAR     51  24  34 N9        30.14R
ALLAIRE*       CLEAR     51  26  37 NW13      30.14R
TOMS RIVER*    CLEAR     51  31  46 N6        30.14R

$$
PAZ043-044-047-054-055-060>062-066>071-300100-
EASTERN PENNSYLVANIA

CITY           SKY/WX    TMP DP  RH WIND       PRES   REMARKS
PHILADELPHIA   CLEAR     55  27  34 N12       30.16R
6HR MIN TEMP:  55; 6HR MAX TEMP:  62;

NORTH PHILA    CLEAR     53  28  38 N13       30.17R
BLUE BELL*     CLEAR     50  30  46 N3        30.16R
DOYLESTOWN     CLEAR     50  27  40 NW7       30.15R
QUAKERTOWN*    CLEAR     48  27  43 N7        30.18R
PERKASIE*      FAIR      48  25  40 N7        30.18R
POTTSTOWN      CLEAR     50  25  37 N12       30.18R
LANCASTER      CLEAR     50  30  46 N7        30.18R
COATESVILLE    CLEAR     52  28  40 N10       30.17R
READING        CLEAR     51  28  41 N13       30.17R
6HR MIN TEMP:  51; 6HR MAX TEMP:  60;

ALLENTOWN      CLEAR     49  25  39 NW13      30.17R
6HR MIN TEMP:  49; 6HR MAX TEMP:  59;

MOUNT POCONO   CLEAR     39  24  55 N15G25    30.14R WCI  31
6HR MIN TEMP:  39; 6HR MAX TEMP:  46;

HAZLETON       CLEAR     43  25  49 N12G21    30.19R
LEHIGHTON      FAIR      48  23  37 NW6G16    30.19R
WILKES BARRE   CLEAR     44  26  49 N10       30.20R

$$
DEZALL-MDZ008-012-015-019-020-300100-
DELAWARE AND EASTERN MARYLAND

CITY           SKY/WX    TMP DP  RH WIND       PRES   REMARKS
WILMINGTON     CLEAR     53  32  44 N12       30.15R
6HR MIN TEMP:  53; 6HR MAX TEMP:  63;

DOVER          CLEAR     55  38  52 NW12      30.12R
GEORGETOWN     CLEAR     58  33  39 NW3       30.12R
6HR MIN TEMP:  58; 6HR MAX TEMP:  65;

ABERDEEN       CLEAR     54  31  41 N6        30.17R
PATUXENT       PTCLDY    55  39  54 CALM      30.13R
OCEAN CITY     CLEAR     47  41  80 SW5       30.13R
WALLOPS ISLAND CLEAR     45  42  89 S6        30.14R
CAMBRIDGE      CLEAR     57  34  41 N6        30.14R
SALISBURY      CLEAR     51  40  65 SE3       30.12R

$$
PAZ001-021-NYZ056-072-MDZ011-DCZ001-300100-
OTHER NEARBY LOCATIONS

CITY           SKY/WX    TMP DP  RH WIND       PRES   REMARKS
HARRISBURG     PTCLDY    53  29  39 N5        30.18R
STATE COLLEGE  CLEAR     50  28  43 NE10      30.17R
WILLIAMSPORT   CLEAR     49  26  41 N7        30.20R
BINGHAMTON     CLOUDY    36  22  56 N13       30.22R WCI  27
NEW YORK CITY  CLEAR     51  23  33 N9G20     30.16R
BALTIMORE      PTCLDY    56  32  40 N7        30.15R
WASHINGTON DC  PTCLDY    61  38  42 NE13      30.14R

$$




USA.gov is the U.S. government's official web portal to all federal, state and local government web resources and services.